Tracking 28125 objects as of 4-Oct-2023
HD Live streaming from Space Station
objects crossing your sky now

THORAD AGENA D DEB

Track THORAD AGENA D DEB now!
10-day predictions


NORAD ID: 4748
Int'l Code: 1970-025CW
Perigee: 1,026.6 km
Apogee: 1,036.0 km
Inclination: 100.0 °
Period: 105.6 minutes
Semi major axis: 7402 km
RCS: 0.1028 m2 (medium)
Launch date: April 8, 1970
Source: United States (US)
Launch site: AIR FORCE WESTERN TEST RANGE (AFWTR)

Note: This is SATELLITE DEBRIS
Your satellite tracking list
Your tracking list is empty




NASA's NSSDC Master Catalog

Two Line Element Set (TLE):
1 04748U 70025CW  23276.89915347  .00000696  00000-0  94676-3 0  9999
2 04748 100.0225  43.7634 0006350  85.1854 275.0012 13.63171760648366
Source of the keplerian elements: AFSPC